Regional Weather Roundup
Issued by NWS

Home | Current Version | Previous Version | Text Only | Print | Product List | Glossary Off
Versions: 1 2 3 4 5 6 7 8 9 10 11 12 13 14 15 16 17 18 19 20 21 22 23 24 25 26 27 28 29 30 31 32 33 34 35 36 37 38 39 40 41 42 43 44 45 46 47 48 49 50

000
ASUS43 KLMK 232110
RWRKY
KENTUCKY REGIONAL WEATHER ROUNDUP
NATIONAL WEATHER SERVICE LOUISVILLE KY
500 PM EDT FRI JUN 23 2017

NOTE "FAIR" INDICATES FEW OR NO CLOUDS BELOW 12,000 FEET
WITH NO SIGNIFICANT WEATHER AND/OR OBSTRUCTIONS TO VISIBILITY.

KYZ001>023-026-027-061>063-070>075-232200-
WESTERN AND SOUTH CENTRAL KENTUCKY

CITY           SKY/WX    TMP DP  RH WIND       PRES   REMARKS
PADUCAH        PTSUNNY   83  73  72 W10       29.71R
HENDERSON      CLOUDY    79  74  84 NW8       29.70R
OWENSBORO      CLOUDY    77  74  90 N10       29.68R
HOPKINSVILLE   CLOUDY    77  73  88 W16G26    29.71R
BOWLING GREEN  RAIN      77  76  96 S13G18    29.62F FOG
GLASGOW        RAIN      76  76 100 S12G21    29.64F
$$

KYZ024-025-028>034-038-045-046-053-232200-
NORTH CENTRAL KENTUCKY

CITY           SKY/WX    TMP DP  RH WIND       PRES   REMARKS
LOUISVILLE/SDF RAIN      73  71  93 SW5       29.68F FOG
LOUISVILLE/LOU RAIN      74  71  91 W6        29.69F FOG
FORT KNOX      HVY RAIN  73  73 100 N12       29.67F FOG
$$

KYZ035>037-039>044-047>052-055>060-089>105-232200-
NORTHEAST KENTUCKY

CITY           SKY/WX    TMP DP  RH WIND       PRES   REMARKS
LEXINGTON      RAIN      75  71  87 S10       29.72F FOG
COVINGTON      TSTM      69  68  96 S3        29.71S VSB 1
FRANKFORT      LGT RAIN  75  71  87 SW13      29.70R FOG
$$

KYZ054-064>069-076>088-106>120-232200-
SOUTHEAST KENTUCKY

CITY           SKY/WX    TMP DP  RH WIND       PRES   REMARKS
JACKSON        PTSUNNY   81  72  74 VRB3      29.77F
LONDON         CLOUDY    77  71  82 S6        29.77F
SOMERSET       RAIN      73  72  94 S6        29.74F
MIDDLESBORO    CLOUDY    85  68  55 S7G17     29.80F
MONTICELLO     RAIN      76  71  85 VRB7      29.74F
$$




USA.gov is the U.S. government's official web portal to all federal, state and local government web resources and services.